Regional Weather Roundup
Issued by NWS Midland/Odessa, TX

Home | Current Version | Previous Version | Text Only | Print | Product List | Glossary On
Versions: 1 2 3 4 5 6 7 8 9 10 11 12 13 14 15 16 17 18 19 20 21 22 23 24 25 26 27 28 29 30 31 32 33 34 35 36 37 38 39 40 41 42 43 44 45 46 47 48 49 50
000
ASUS44 KMAF 250710
RWRMAF
MIDLAND AREA WEATHER ROUNDUP
NATIONAL WEATHER SERVICE MIDLAND TX
200 AM CDT FRI JUL 25 2014

...IN SOUTHWEST TEXAS AND SOUTHEAST NEW MEXICO...

CITY           SKY/WX    TMP DP  RH WIND       PRES   REMARKS
ALPINE         CLEAR     73  54  50 SW5       30.26R
ANDREWS        FAIR      81  59  47 SE9       30.13R
ARTESIA        CLEAR     75  46  35 S7        30.12R
BIG SPRING     CLEAR     82  60  48 SE10      30.11S
CARLSBAD       CLEAR     81  48  31 S7        30.09S
DRYDEN           N/A     82  65  56 NE5       30.06R
FORT STOCKTON  CLEAR     78  57  48 S9        30.10S
GUAD PASS      CLEAR     75  49  39 NE8         N/A
HOBBS          CLEAR     77  57  50 SE8       30.15S
MARFA          CLEAR     64  52  63 W3        30.25S
MIDLAND AIRPK  CLEAR     82  60  46 S13       30.10S
MIDLAND INTL   CLEAR     81  61  50 S14       30.10S
ODESSA         CLEAR     80  60  50 S13       30.11S
PECOS          CLEAR     78  55  45 SE6       30.06S
PRESIDIO       FAIR      82  56  39 NE6       30.08S
SEMINOLE       CLEAR     79  58  48 SE9       30.14S
SNYDER         CLEAR     80  64  57 SE9       30.08F
WINK           CLEAR     84  59  42 SE8       30.07R
$$
...OTHER STATIONS IN TEXAS...

CITY           SKY/WX    TMP DP  RH WIND       PRES   REMARKS
ABILENE        CLEAR     77  66  68 SE8       30.05F
AMARILLO       CLEAR     77  61  57 S20       30.10F
AUSTIN         PTCLDY    77  70  79 S8        30.00F
BROWNSVILLE    CLEAR     80  77  90 S9        29.99F
CORPUS CHRISTI PTCLDY    79  74  84 SE7       29.99S
DALLAS FTW     CLEAR     78  68  71 SE6       30.01S
DEL RIO        CLEAR     81  67  62 E7        30.00S
EL PASO        PTCLDY    81  52  36 E6        30.11S
HOUSTON INT    PTCLDY    76  72  87 CALM      30.00S
LUBBOCK        CLEAR     77  60  55 S10       30.12S
SAN ANGELO     CLEAR     77  64  64 S3        30.06S
SAN ANTONIO    PTCLDY    80  70  71 SE9       30.03R
WACO           CLEAR     78  68  71 SE5       30.00F
WICHITA FALLS  NOT AVBL
$$
...OTHER LOCATIONS IN NEW MEXICO...

CITY           SKY/WX    TMP DP  RH WIND       PRES   REMARKS
ALAMAGORDO     PTCLDY    77  43  29 S10       30.14S
ALBUQUERQUE    CLEAR     77  40  26 S8        30.22R
CANNON AFB     CLEAR     69  55  61 S7        30.16F
CLOVIS         NOT AVBL
HOLLOMAN AFB   PTCLDY    80  44  27 S5        30.12R
ROSWELL        CLEAR     76  48  37 S7        30.11S
RUIDOSO        PTCLDY    70  41  35 NW3       30.38F
SANTA FE       CLEAR     65  45  48 N3        30.28R
TRUTH OR CONSE CLEAR     76  43  30 W6        30.18R
TUCUMCARI      CLEAR     82  49  31 S18G26    30.09S
$$


USA.gov is the U.S. government's official web portal to all federal, state and local government web resources and services.